Tracking 20621 objects as of 31-Mar-2020
HD Live streaming from Space Station
objects crossing your sky now

EDUSAT

Track EDUSAT now!
10-day predictions
EDUSAT is classified as:


NORAD ID: 37788
Int'l Code: 2011-044A
Perigee: 637.4 km
Apogee: 692.7 km
Inclination: 98.4 °
Period: 97.9 minutes
Semi major axis: 7036 km
RCS: 0.1421 m2 (medium)
Launch date: August 17, 2011
Source: Italy (IT)
Launch site: Orenburg, Russia (OREN)

EduSat is a microsatellite built by the University of Rome.
aabbcc
Your satellite tracking list
Your tracking list is empty




NASA's NSSDC Master Catalog

Two Line Element Set (TLE):
1 37788U 11044A   20090.70617247 +.00000077 +00000-0 +21152-4 0  9997
2 37788 098.3792 244.8371 0039301 108.4878 264.7218 14.70982566462464
Source of the keplerian elements: AFSPC